Elizabethton, TN

3:17 PM EDT on August 25, 2016 (GMT -0400)
Elizabethton

Weather History for K0A9 - June, 2012

Change the Weather History Date:

Wednesday, June 13, 2012

  Actual Average (KTRI) Record (KTRI)
Temperature  
Mean Temperature 70 °F 71 °F  
Max Temperature 80 °F 83 °F 95 °F (1944)
Min Temperature 57 °F 60 °F 48 °F (1985)
Degree Days  
Heating Degree Days 0 0  
Month to date heating degree days 9  
Since 1 June heating degree days 9  
Since 1 July heating degree days 4372  
Cooling Degree Days 4 7  
Month to date cooling degree days 69  
Year to date cooling degree days 142  
Since 1 June cooling degree days 69  
Growing Degree Days 20 (Base 50)    
Moisture  
Dew Point 60 °F    
Average Humidity 74    
Maximum Humidity 100    
Minimum Humidity 37    
Precipitation  
Precipitation 0.00 in 0.11 in 3.10 in (1954)
Month to date precipitation 1.63  
Year to date precipitation 19.02  
Snow  
Snow 0.00 in 0.00 in - ()
Month to date snowfall 0.0  
Since 1 June snowfall 0.0  
Since 1 July snowfall 13.3  
Snow Depth -    
Sea Level Pressure  
Sea Level Pressure 30.04 in    
Wind  
Wind Speed 1 mph (North)    
Max Wind Speed 9 mph    
Max Gust Speed -    
Visibility 8 miles    
Events Fog    
T = Trace of Precipitation, MM = Missing Value Source: NWS Daily Summary

Daily Weather History Graph

Daily Weather History Graph

Search for Another Location

Airport or City:

Trip Planner

Search our weather history database for the weather conditions in past years. The results will help you decide how hot, cold, wet, or windy it might be!

Date:

Astronomy

Jun. 13, 2012 Rise Set
Actual Time 6:10 AM EDT 8:47 PM EDT
Civil Twilight 5:39 AM EDT 9:18 PM EDT
Nautical Twilight 5:02 AM EDT 9:55 PM EDT
Astronomical Twilight 4:19 AM EDT 10:38 PM EDT
Moon 2:15 AM EDT (6/13) 3:39 PM EDT (6/13)
Length of Visible Light 15h 38m
Length of Day
14h 37m
Waning Crescent, 29% of the Moon is Illuminated
Jun 13
Waning Crescent
Jun 19
New
Jun 26
First Quarter
Jul 3
Full
Jul 10
Last Quarter

Hourly Weather History & Observations

Time (EDT) Temp. Heat Index Dew Point Humidity Pressure Visibility Wind Dir Wind Speed Gust Speed Precip Events Conditions
12:35 AM 64.4 °F - 64.4 °F 100% 30.03 in 10.0 mi Calm Calm - N/A   Mostly Cloudy
12:55 AM 64.4 °F - 64.4 °F 100% 30.03 in 10.0 mi Calm Calm - N/A   Mostly Cloudy
1:15 AM 64.4 °F - 64.4 °F 100% 30.03 in 9.0 mi Calm Calm - N/A   Mostly Cloudy
1:35 AM 64.4 °F - 64.4 °F 100% 30.03 in 9.0 mi Calm Calm - N/A   Scattered Clouds
1:55 AM 64.4 °F - 62.6 °F 94% 30.03 in 9.0 mi Calm Calm - N/A   Partly Cloudy
2:15 AM 62.6 °F - 62.6 °F 100% 30.03 in 7.0 mi Calm Calm - N/A   Partly Cloudy
2:35 AM 64.4 °F - 64.4 °F 100% 30.03 in 9.0 mi Calm Calm - N/A   Mostly Cloudy
2:55 AM 64.4 °F - 64.4 °F 100% 30.03 in 9.0 mi Calm Calm - N/A   Overcast
3:15 AM 64.4 °F - 64.4 °F 100% 30.02 in 8.0 mi Calm Calm - N/A   Overcast
3:35 AM 64.4 °F - 64.4 °F 100% 30.02 in 8.0 mi Calm Calm - N/A   Mostly Cloudy
4:15 AM 62.6 °F - 62.6 °F 100% 30.01 in 6.0 mi Calm Calm - N/A   Scattered Clouds
4:35 AM 62.6 °F - 62.6 °F 100% 30.02 in 7.0 mi Calm Calm - N/A   Partly Cloudy
4:55 AM 62.6 °F - 62.6 °F 100% 30.02 in 6.0 mi Calm Calm - N/A   Clear
5:15 AM 62.6 °F - 62.6 °F 100% 30.02 in 4.0 mi Calm Calm - N/A   Clear
5:35 AM 60.8 °F - 60.8 °F 100% 30.03 in 3.0 mi Calm Calm - N/A   Clear
5:55 AM 60.8 °F - 60.8 °F 100% 30.03 in 3.0 mi Calm Calm - N/A   Partly Cloudy
6:15 AM 62.6 °F - 62.6 °F 100% 30.03 in 0.2 mi Calm Calm - N/A Fog Fog
6:35 AM 62.6 °F - 62.6 °F 100% 30.03 in 0.2 mi Calm Calm - N/A Fog Fog
6:55 AM 62.6 °F - 62.6 °F 100% 30.03 in 0.8 mi Calm Calm - N/A   Overcast
7:15 AM 62.6 °F - 62.6 °F 100% 30.04 in 0.2 mi Calm Calm - N/A Fog Fog
7:35 AM 62.6 °F - 62.6 °F 100% 30.04 in 0.2 mi Calm Calm - N/A Fog Fog
7:55 AM 62.6 °F - 62.6 °F 100% 30.05 in 2.5 mi Calm Calm - N/A   Overcast
8:35 AM 64.4 °F - 64.4 °F 100% 30.05 in 8.0 mi Calm Calm - N/A   Overcast
8:55 AM 66.2 °F - 64.4 °F 94% 30.05 in 10.0 mi Calm Calm - N/A   Overcast
9:15 AM 69.8 °F - 64.4 °F 83% 30.05 in 9.0 mi Calm Calm - N/A   Mostly Cloudy
9:35 AM 69.8 °F - 64.4 °F 83% 30.04 in 10.0 mi Calm Calm - N/A   Clear
9:55 AM 71.6 °F - 64.4 °F 78% 30.04 in 10.0 mi Calm Calm - N/A   Clear
10:15 AM 75.2 °F - 64.4 °F 69% 30.03 in 10.0 mi Calm Calm - N/A   Partly Cloudy
10:35 AM 75.2 °F - 64.4 °F 69% 30.03 in 10.0 mi Variable 3.5 mph - N/A   Partly Cloudy
10:55 AM 75.2 °F - 64.4 °F 69% 30.04 in 10.0 mi WNW 4.6 mph - N/A   Scattered Clouds
11:15 AM 77.0 °F - 64.4 °F 65% 30.05 in 9.0 mi West 9.2 mph - N/A   Scattered Clouds
11:55 AM 75.2 °F - 64.4 °F 69% 30.06 in 10.0 mi West 6.9 mph - N/A   Scattered Clouds
12:15 PM 75.2 °F - 60.8 °F 61% 30.07 in 10.0 mi Calm Calm - N/A   Scattered Clouds
12:55 PM 78.8 °F - 60.8 °F 54% 30.06 in 10.0 mi Variable 5.8 mph - N/A   Partly Cloudy
1:15 PM 78.8 °F - 60.8 °F 54% 30.06 in 10.0 mi Variable 3.5 mph - N/A   Partly Cloudy
1:35 PM 78.8 °F - 60.8 °F 54% 30.05 in 10.0 mi NNW 3.5 mph - N/A   Scattered Clouds
1:55 PM 78.8 °F - 57.2 °F 47% 30.05 in 10.0 mi Calm Calm - N/A   Scattered Clouds
2:15 PM 80.6 °F - 51.8 °F 37% 30.05 in 10.0 mi North 6.9 mph - N/A   Partly Cloudy
2:35 PM 80.6 °F 80.3 °F 53.6 °F 39% 30.04 in 10.0 mi Calm Calm - N/A   Clear
2:55 PM 80.6 °F 80.5 °F 55.4 °F 42% 30.04 in 10.0 mi Variable 4.6 mph - N/A   Clear
3:15 PM 80.6 °F 80.3 °F 53.6 °F 39% 30.03 in 10.0 mi WNW 6.9 mph - N/A   Clear
3:35 PM 80.6 °F 80.5 °F 55.4 °F 42% 30.03 in 10.0 mi Variable 5.8 mph - N/A   Clear
3:55 PM 80.6 °F 80.3 °F 53.6 °F 39% 30.03 in 10.0 mi Variable 3.5 mph - N/A   Clear
4:15 PM 80.6 °F 80.5 °F 55.4 °F 42% 30.02 in 10.0 mi Variable 4.6 mph - N/A   Clear
4:35 PM 80.6 °F 80.5 °F 55.4 °F 42% 30.02 in 10.0 mi Calm Calm - N/A   Clear
4:55 PM 80.6 °F 80.8 °F 57.2 °F 45% 30.02 in 10.0 mi Variable 4.6 mph - N/A   Clear
5:15 PM 80.6 °F 80.5 °F 55.4 °F 42% 30.02 in 10.0 mi East 3.5 mph - N/A   Scattered Clouds
5:35 PM 78.8 °F - 57.2 °F 47% 30.01 in 10.0 mi ENE 3.5 mph - N/A   Partly Cloudy
5:55 PM 80.6 °F 80.5 °F 55.4 °F 42% 30.01 in 10.0 mi Variable 3.5 mph - N/A   Clear
6:15 PM 78.8 °F - 57.2 °F 47% 30.01 in 10.0 mi Variable 3.5 mph - N/A   Clear
6:35 PM 78.8 °F - 57.2 °F 47% 30.01 in 10.0 mi North 4.6 mph - N/A   Clear
6:55 PM 78.8 °F - 55.4 °F 44% 30.02 in 10.0 mi NNW 4.6 mph - N/A   Clear
7:15 PM 78.8 °F - 60.8 °F 54% 30.02 in 10.0 mi Calm Calm - N/A   Clear
7:35 PM 77.0 °F - 55.4 °F 47% 30.02 in 10.0 mi NNW 3.5 mph - N/A   Clear
7:55 PM 73.4 °F - 57.2 °F 57% 30.02 in 10.0 mi North 3.5 mph - N/A   Clear
8:15 PM 71.6 °F - 57.2 °F 60% 30.02 in 10.0 mi North 3.5 mph - N/A   Clear
8:35 PM 69.8 °F - 57.2 °F 64% 30.02 in 10.0 mi Calm Calm - N/A   Clear
8:55 PM 68.0 °F - 55.4 °F 64% 30.03 in 10.0 mi ENE 3.5 mph - N/A   Clear
9:15 PM 66.2 °F - 57.2 °F 73% 30.04 in 10.0 mi Calm Calm - N/A   Clear
9:35 PM 64.4 °F - 57.2 °F 77% 30.04 in 10.0 mi Calm Calm - N/A   Clear
9:55 PM 64.4 °F - 57.2 °F 77% 30.05 in 10.0 mi NE 3.5 mph - N/A   Clear
10:15 PM 62.6 °F - 57.2 °F 82% 30.06 in 10.0 mi Calm Calm - N/A   Clear
10:35 PM 62.6 °F - 57.2 °F 82% 30.07 in 10.0 mi Calm Calm - N/A   Clear
10:55 PM 60.8 °F - 57.2 °F 88% 30.08 in 10.0 mi Calm Calm - N/A   Clear
11:15 PM 60.8 °F - 57.2 °F 88% 30.08 in 10.0 mi Calm Calm - N/A   Clear
11:35 PM 59.0 °F - 55.4 °F 88% 30.08 in 10.0 mi Calm Calm - N/A   Clear
11:55 PM 57.2 °F - 55.4 °F 94% 30.09 in 10.0 mi Calm Calm - N/A   Clear